Location: Bogis-Bossey
(46.3500°N, 6.1667°E)
Time: 17:09:27
(UTC+00:00)

ARIANE 5 R/B - Pass Details

Date: 17 August 2022
Orbit: 621 x 654 km, 98.1° (Epoch: 23 September)

Event Time Altitude Azimuth Distance (km) Brightness Sun altitude
Exits shadow 20:13:49 14° 82° (E) 1,747 4.5 -14.7°
Maximum altitude 20:15:11 16° 60° (ENE) 1,645 4.5 -14.9°
Drops below altitude 10° 20:17:50 10° 23° (NNE) 2,012 5.4 -15.3°
Sets 20:20:45 0° 2° (N) 2,931 6.6 -15.6°
